Time,TemperatureF,DewpointF,PressureIn,WindDirection,WindDirectionDegrees,WindSpeedMPH,WindSpeedGustMPH,Humidity,HourlyPrecipIn,Conditions,Clouds,dailyrainin,SoftwareType,DateUTC
2013-02-06 00:01:00,42.0,41.5,30.12,SSW,192,0.0,0.0,98,0.00,,,0.00,Wunderground v.1.15,2013-02-06 08:01:00,
2013-02-06 00:06:00,42.0,41.7,30.12,SSW,192,0.0,0.0,99,0.00,,,0.00,Wunderground v.1.15,2013-02-06 08:06:00,
2013-02-06 00:15:00,42.1,41.8,30.12,SSW,198,0.0,0.0,99,0.00,,,0.01,Wunderground v.1.15,2013-02-06 08:15:00,
2013-02-06 00:25:00,42.1,41.8,30.12,ESE,123,0.0,0.0,99,0.00,,,0.01,Wunderground v.1.15,2013-02-06 08:25:00,
2013-02-06 00:36:00,41.9,41.6,30.12,East,92,0.0,0.0,99,0.00,,,0.01,Wunderground v.1.15,2013-02-06 08:36:00,
2013-02-06 00:45:00,42.0,41.7,30.12,East,92,0.0,0.0,99,0.00,,,0.01,Wunderground v.1.15,2013-02-06 08:45:00,
2013-02-06 00:55:00,42.2,41.9,30.12,East,92,0.0,0.0,99,0.00,,,0.01,Wunderground v.1.15,2013-02-06 08:55:00,
2013-02-06 01:05:00,42.5,42.2,30.12,East,92,0.0,0.0,99,0.00,,,0.01,Wunderground v.1.15,2013-02-06 09:05:00,
2013-02-06 01:15:00,42.5,42.2,30.12,East,92,0.0,0.0,99,0.00,,,0.01,Wunderground v.1.15,2013-02-06 09:15:00,
2013-02-06 01:21:00,42.2,41.9,30.12,East,92,0.0,0.0,99,0.00,,,0.01,Wunderground v.1.15,2013-02-06 09:21:00,
2013-02-06 01:30:00,41.9,41.4,30.13,East,92,0.0,0.0,98,0.00,,,0.01,Wunderground v.1.15,2013-02-06 09:30:00,
2013-02-06 01:41:00,41.6,41.1,30.13,East,92,0.0,0.0,98,0.00,,,0.01,Wunderground v.1.15,2013-02-06 09:41:00,
2013-02-06 01:50:00,41.3,40.8,30.13,SW,214,0.0,0.0,98,0.00,,,0.01,Wunderground v.1.15,2013-02-06 09:50:00,
2013-02-06 02:01:00,41.3,40.8,30.13,SW,214,0.0,0.0,98,0.00,,,0.01,Wunderground v.1.15,2013-02-06 10:01:00,
2013-02-06 02:10:00,41.5,41.2,30.13,South,185,0.0,0.0,99,0.00,,,0.01,Wunderground v.1.15,2013-02-06 10:10:00,
2013-02-06 02:20:00,41.6,41.3,30.12,SE,143,0.0,0.0,99,0.00,,,0.01,Wunderground v.1.15,2013-02-06 10:20:00,
2013-02-06 02:35:00,42.0,41.7,30.12,SE,134,0.0,0.0,99,0.00,,,0.01,Wunderground v.1.15,2013-02-06 10:35:00,
2013-02-06 02:45:00,42.0,41.7,30.13,SE,134,0.0,0.0,99,0.00,,,0.01,Wunderground v.1.15,2013-02-06 10:45:00,
2013-02-06 02:56:00,41.8,41.5,30.12,SE,134,0.0,0.0,99,0.00,,,0.01,Wunderground v.1.15,2013-02-06 10:56:00,
2013-02-06 03:05:00,41.5,41.2,30.12,SE,134,0.0,0.0,99,0.00,,,0.01,Wunderground v.1.15,2013-02-06 11:05:00,
2013-02-06 03:16:00,41.3,41.0,30.12,SE,134,0.0,0.0,99,0.00,,,0.01,Wunderground v.1.15,2013-02-06 11:16:00,
2013-02-06 03:25:00,41.2,40.9,30.11,SE,134,0.0,0.0,99,0.00,,,0.01,Wunderground v.1.15,2013-02-06 11:25:00,
2013-02-06 03:35:00,41.1,40.8,30.12,SE,134,0.0,1.0,99,0.00,,,0.02,Wunderground v.1.15,2013-02-06 11:35:00,
2013-02-06 03:45:00,41.2,40.9,30.12,NW,318,0.0,0.0,99,0.00,,,0.02,Wunderground v.1.15,2013-02-06 11:45:00,
2013-02-06 03:55:00,41.2,40.9,30.12,NW,318,0.0,0.0,99,0.00,,,0.02,Wunderground v.1.15,2013-02-06 11:55:00,
2013-02-06 04:05:00,41.3,41.0,30.12,NW,318,0.0,0.0,99,0.00,,,0.02,Wunderground v.1.15,2013-02-06 12:05:00,
2013-02-06 04:15:00,41.1,40.8,30.13,NW,318,0.0,0.0,99,0.00,,,0.02,Wunderground v.1.15,2013-02-06 12:15:00,
2013-02-06 04:25:00,40.9,40.6,30.13,NW,318,0.0,0.0,99,0.00,,,0.02,Wunderground v.1.15,2013-02-06 12:25:00,
2013-02-06 04:35:00,40.8,40.5,30.12,NW,318,0.0,0.0,99,0.00,,,0.02,Wunderground v.1.15,2013-02-06 12:35:00,
2013-02-06 04:40:00,40.8,40.5,30.12,NW,318,0.0,0.0,99,0.00,,,0.02,Wunderground v.1.15,2013-02-06 12:40:00,
2013-02-06 04:50:00,40.9,40.6,30.11,NW,318,0.0,0.0,99,0.00,,,0.02,Wunderground v.1.15,2013-02-06 12:50:00,
2013-02-06 05:05:00,40.9,40.6,30.11,NW,318,0.0,0.0,99,0.00,,,0.02,Wunderground v.1.15,2013-02-06 13:05:00,
2013-02-06 05:16:00,41.0,40.7,30.11,NW,318,0.0,0.0,99,0.00,,,0.03,Wunderground v.1.15,2013-02-06 13:16:00,
2013-02-06 05:30:00,41.0,40.7,30.11,NW,318,0.0,0.0,99,0.00,,,0.03,Wunderground v.1.15,2013-02-06 13:30:00,
2013-02-06 05:40:00,40.8,40.5,30.11,NW,318,0.0,0.0,99,0.00,,,0.03,Wunderground v.1.15,2013-02-06 13:40:00,
2013-02-06 05:50:00,40.7,40.4,30.11,NW,318,0.0,0.0,99,0.00,,,0.03,Wunderground v.1.15,2013-02-06 13:50:00,
2013-02-06 06:05:00,40.6,40.3,30.11,NW,318,0.0,0.0,99,0.00,,,0.03,Wunderground v.1.15,2013-02-06 14:05:00,
2013-02-06 06:11:00,40.5,40.2,30.11,NW,318,0.0,0.0,99,0.00,,,0.03,Wunderground v.1.15,2013-02-06 14:11:00,
2013-02-06 06:20:00,40.3,40.0,30.11,NW,318,0.0,0.0,99,0.00,,,0.03,Wunderground v.1.15,2013-02-06 14:20:00,
2013-02-06 06:30:00,40.2,39.9,30.11,NW,318,0.0,0.0,99,0.00,,,0.03,Wunderground v.1.15,2013-02-06 14:30:00,
2013-02-06 06:41:00,40.1,39.8,30.11,NW,318,0.0,0.0,99,0.00,,,0.03,Wunderground v.1.15,2013-02-06 14:41:00,
2013-02-06 06:50:00,40.0,39.7,30.11,NW,318,0.0,0.0,99,0.00,,,0.03,Wunderground v.1.15,2013-02-06 14:50:00,
2013-02-06 07:06:00,39.9,39.6,30.11,NW,318,0.0,0.0,99,0.00,,,0.03,Wunderground v.1.15,2013-02-06 15:06:00,
2013-02-06 07:15:00,39.8,39.5,30.11,NW,318,0.0,0.0,99,0.00,,,0.03,Wunderground v.1.15,2013-02-06 15:15:00,
2013-02-06 07:25:00,39.8,39.5,30.11,NW,318,0.0,1.0,99,0.00,,,0.03,Wunderground v.1.15,2013-02-06 15:25:00,
2013-02-06 07:31:00,39.8,39.5,30.11,NW,318,0.0,0.0,99,0.00,,,0.03,Wunderground v.1.15,2013-02-06 15:31:00,
2013-02-06 07:40:00,39.9,39.6,30.11,NW,318,0.0,0.0,99,0.00,,,0.03,Wunderground v.1.15,2013-02-06 15:40:00,
2013-02-06 07:50:00,40.1,39.8,30.11,NW,318,0.0,0.0,99,0.00,,,0.03,Wunderground v.1.15,2013-02-06 15:50:00,
2013-02-06 08:05:00,40.5,40.2,30.11,NW,318,0.0,0.0,99,0.00,,,0.03,Wunderground v.1.15,2013-02-06 16:05:00,
2013-02-06 08:15:00,40.8,40.5,30.11,NW,318,0.0,0.0,99,0.00,,,0.03,Wunderground v.1.15,2013-02-06 16:15:00,
2013-02-06 08:26:00,41.1,40.8,30.11,NW,318,0.0,0.0,99,0.00,,,0.03,Wunderground v.1.15,2013-02-06 16:26:00,
2013-02-06 08:35:00,41.2,40.9,30.11,NW,318,0.0,0.0,99,0.00,,,0.04,Wunderground v.1.15,2013-02-06 16:35:00,
2013-02-06 08:45:00,41.5,41.5,30.10,NW,318,0.0,0.0,100,0.00,,,0.04,Wunderground v.1.15,2013-02-06 16:45:00,
2013-02-06 08:55:00,41.8,41.5,30.11,NW,318,0.0,0.0,99,0.00,,,0.04,Wunderground v.1.15,2013-02-06 16:55:00,
2013-02-06 09:06:00,42.4,42.4,30.11,NW,318,0.0,0.0,100,0.00,,,0.04,Wunderground v.1.15,2013-02-06 17:06:00,
2013-02-06 09:15:00,43.0,43.0,30.11,NW,318,0.0,0.0,100,0.00,,,0.04,Wunderground v.1.15,2013-02-06 17:15:00,
2013-02-06 09:25:00,43.6,43.6,30.11,NW,318,0.0,0.0,100,0.00,,,0.04,Wunderground v.1.15,2013-02-06 17:25:00,
2013-02-06 09:35:00,44.2,44.2,30.10,NW,318,0.0,0.0,100,0.00,,,0.04,Wunderground v.1.15,2013-02-06 17:35:00,
2013-02-06 09:45:00,45.2,45.2,30.11,SE,128,0.0,0.0,100,0.00,,,0.04,Wunderground v.1.15,2013-02-06 17:45:00,
2013-02-06 10:05:00,45.7,45.7,30.10,ESE,117,0.0,1.0,100,0.00,,,0.04,Wunderground v.1.15,2013-02-06 18:05:00,
2013-02-06 10:11:00,45.9,45.9,30.10,SE,144,1.0,3.0,100,0.00,,,0.04,Wunderground v.1.15,2013-02-06 18:11:00,
2013-02-06 10:20:00,46.3,46.3,30.10,SSE,152,1.0,3.0,100,0.00,,,0.04,Wunderground v.1.15,2013-02-06 18:20:00,
2013-02-06 10:31:00,46.9,46.9,30.10,North,360,0.0,2.0,100,0.00,,,0.04,Wunderground v.1.15,2013-02-06 18:31:00,
2013-02-06 10:40:00,46.8,46.0,30.10,ESE,117,1.0,1.0,97,0.00,,,0.04,Wunderground v.1.15,2013-02-06 18:40:00,
2013-02-06 10:50:00,47.0,45.6,30.10,ESE,117,1.0,2.0,95,0.00,,,0.04,Wunderground v.1.15,2013-02-06 18:50:00,
2013-02-06 11:01:00,47.3,45.9,30.09,SE,136,1.0,3.0,95,0.00,,,0.04,Wunderground v.1.15,2013-02-06 19:01:00,
2013-02-06 11:10:00,47.5,46.1,30.09,ESE,117,1.0,3.0,95,0.00,,,0.04,Wunderground v.1.15,2013-02-06 19:10:00,
2013-02-06 11:20:00,48.0,46.1,30.08,SSE,150,0.0,6.0,93,0.00,,,0.04,Wunderground v.1.15,2013-02-06 19:20:00,
2013-02-06 11:26:00,48.1,45.9,30.08,ESE,117,1.0,1.0,92,0.00,,,0.04,Wunderground v.1.15,2013-02-06 19:26:00,
2013-02-06 11:35:00,47.9,45.7,30.08,ESE,113,2.0,5.0,92,0.00,,,0.04,Wunderground v.1.15,2013-02-06 19:35:00,
2013-02-06 11:45:00,47.7,45.8,30.08,West,274,2.0,2.0,93,0.00,,,0.04,Wunderground v.1.15,2013-02-06 19:45:00,
2013-02-06 11:55:00,47.5,45.6,30.07,SE,143,0.0,0.0,93,0.00,,,0.04,Wunderground v.1.15,2013-02-06 19:55:00,
2013-02-06 12:06:00,47.5,45.9,30.07,SE,133,1.0,4.0,94,0.00,,,0.04,Wunderground v.1.15,2013-02-06 20:06:00,
2013-02-06 12:15:00,48.1,46.2,30.06,SE,128,1.0,4.0,93,0.00,,,0.04,Wunderground v.1.15,2013-02-06 20:15:00,
2013-02-06 12:25:00,48.5,46.3,30.05,ESE,121,1.0,1.0,92,0.00,,,0.04,Wunderground v.1.15,2013-02-06 20:25:00,
2013-02-06 12:35:00,48.6,45.5,30.04,ESE,111,2.0,4.0,89,0.00,,,0.04,Wunderground v.1.15,2013-02-06 20:35:00,
2013-02-06 12:45:00,48.9,46.1,30.04,SSE,164,2.0,2.0,90,0.00,,,0.04,Wunderground v.1.15,2013-02-06 20:45:00,
2013-02-06 12:55:00,49.3,45.9,30.03,SE,134,0.0,0.0,88,0.00,,,0.04,Wunderground v.1.15,2013-02-06 20:55:00,
2013-02-06 13:05:00,49.5,46.4,30.02,ESE,121,1.0,1.0,89,0.00,,,0.04,Wunderground v.1.15,2013-02-06 21:05:00,
2013-02-06 13:15:00,49.6,45.6,30.02,ESE,119,1.0,1.0,86,0.00,,,0.04,Wunderground v.1.15,2013-02-06 21:15:00,
2013-02-06 13:25:00,49.7,45.7,30.01,SE,128,1.0,1.0,86,0.00,,,0.04,Wunderground v.1.15,2013-02-06 21:25:00,
2013-02-06 13:35:00,49.7,46.3,30.00,SE,129,1.0,1.0,88,0.00,,,0.04,Wunderground v.1.15,2013-02-06 21:35:00,
2013-02-06 13:45:00,50.3,46.0,30.00,ESE,123,2.0,2.0,85,0.00,,,0.04,Wunderground v.1.15,2013-02-06 21:45:00,
2013-02-06 13:51:00,50.8,46.1,30.00,SE,140,1.0,2.0,84,0.00,,,0.04,Wunderground v.1.15,2013-02-06 21:51:00,
2013-02-06 14:05:00,51.3,45.7,29.99,SE,144,1.0,6.0,81,0.00,,,0.04,Wunderground v.1.15,2013-02-06 22:05:00,
2013-02-06 14:15:00,51.5,44.5,29.99,SE,129,2.0,4.0,77,0.00,,,0.04,Wunderground v.1.15,2013-02-06 22:15:00,
2013-02-06 14:25:00,51.4,44.1,29.99,SE,127,3.0,3.0,76,0.00,,,0.04,Wunderground v.1.15,2013-02-06 22:25:00,
2013-02-06 14:31:00,51.4,44.1,29.99,ESE,111,3.0,3.0,76,0.00,,,0.04,Wunderground v.1.15,2013-02-06 22:31:00,
2013-02-06 14:40:00,51.6,43.9,29.98,SE,144,2.0,3.0,75,0.00,,,0.04,Wunderground v.1.15,2013-02-06 22:40:00,
2013-02-06 14:50:00,51.4,43.7,29.98,SE,146,3.0,6.0,75,0.00,,,0.04,Wunderground v.1.15,2013-02-06 22:50:00,
2013-02-06 15:06:00,51.4,43.7,29.98,East,79,1.0,2.0,75,0.00,,,0.04,Wunderground v.1.15,2013-02-06 23:06:00,
2013-02-06 15:15:00,51.3,43.3,29.98,East,88,2.0,2.0,74,0.00,,,0.04,Wunderground v.1.15,2013-02-06 23:15:00,
2013-02-06 15:25:00,51.3,43.6,29.98,SSE,168,2.0,2.0,75,0.00,,,0.04,Wunderground v.1.15,2013-02-06 23:25:00,
2013-02-06 15:30:00,51.4,42.7,29.98,SSE,152,3.0,3.0,72,0.00,,,0.04,Wunderground v.1.15,2013-02-06 23:30:00,
2013-02-06 15:40:00,51.1,42.7,29.98,SSE,164,3.0,5.0,73,0.00,,,0.04,Wunderground v.1.15,2013-02-06 23:40:00,
2013-02-06 15:50:00,51.0,43.4,29.98,SE,136,4.0,4.0,75,0.00,,,0.04,Wunderground v.1.15,2013-02-06 23:50:00,
2013-02-06 15:56:00,50.8,42.8,29.98,SSE,163,2.0,2.0,74,0.00,,,0.04,Wunderground v.1.15,2013-02-06 23:56:00,
2013-02-06 16:05:00,50.5,42.9,29.98,SSE,168,2.0,3.0,75,0.00,,,0.04,Wunderground v.1.15,2013-02-07 00:05:00,
2013-02-06 16:15:00,50.1,42.8,29.98,ESE,117,3.0,4.0,76,0.00,,,0.04,Wunderground v.1.15,2013-02-07 00:15:00,
2013-02-06 16:21:00,49.9,42.6,29.98,SE,144,2.0,4.0,76,0.00,,,0.04,Wunderground v.1.15,2013-02-07 00:21:00,
2013-02-06 16:30:00,49.8,42.9,29.97,SE,128,3.0,3.0,77,0.00,,,0.04,Wunderground v.1.15,2013-02-07 00:30:00,
2013-02-06 16:41:00,49.4,43.5,29.96,SSE,156,1.0,2.0,80,0.00,,,0.04,Wunderground v.1.15,2013-02-07 00:41:00,
2013-02-06 16:50:00,49.1,42.9,29.96,ESE,107,1.0,1.0,79,0.00,,,0.04,Wunderground v.1.15,2013-02-07 00:50:00,
2013-02-06 17:05:00,48.8,41.2,29.95,ESE,111,2.0,2.0,75,0.00,,,0.04,Wunderground v.1.15,2013-02-07 01:05:00,
2013-02-06 17:15:00,48.5,41.6,29.95,SSE,151,2.0,2.0,77,0.00,,,0.04,Wunderground v.1.15,2013-02-07 01:15:00,
2013-02-06 17:25:00,48.4,41.9,29.95,SE,126,2.0,2.0,78,0.00,,,0.04,Wunderground v.1.15,2013-02-07 01:25:00,
2013-02-06 17:30:00,48.4,41.9,29.94,ESE,112,2.0,2.0,78,0.00,,,0.04,Wunderground v.1.15,2013-02-07 01:30:00,
2013-02-06 17:40:00,48.5,40.9,29.95,South,176,2.0,5.0,75,0.00,,,0.04,Wunderground v.1.15,2013-02-07 01:40:00,
2013-02-06 17:55:00,48.3,41.1,29.93,ESE,113,3.0,4.0,76,0.00,,,0.04,Wunderground v.1.15,2013-02-07 01:55:00,
2013-02-06 18:06:00,48.0,41.1,29.93,ESE,113,2.0,4.0,77,0.00,,,0.04,Wunderground v.1.15,2013-02-07 02:06:00,
2013-02-06 18:15:00,47.8,40.9,29.92,ESE,104,4.0,8.0,77,0.00,,,0.04,Wunderground v.1.15,2013-02-07 02:15:00,
2013-02-06 18:25:00,47.8,41.3,29.92,SSE,154,4.0,5.0,78,0.00,,,0.04,Wunderground v.1.15,2013-02-07 02:25:00,
2013-02-06 18:30:00,47.7,41.8,29.92,ESE,120,3.0,3.0,80,0.00,,,0.04,Wunderground v.1.15,2013-02-07 02:30:00,
2013-02-06 18:41:00,47.4,41.5,29.92,ESE,111,1.0,3.0,80,0.00,,,0.04,Wunderground v.1.15,2013-02-07 02:41:00,
2013-02-06 18:50:00,47.4,41.9,29.92,South,169,1.0,3.0,81,0.00,,,0.04,Wunderground v.1.15,2013-02-07 02:50:00,
2013-02-06 19:06:00,46.8,41.6,29.91,SE,127,2.0,2.0,82,0.00,,,0.04,Wunderground v.1.15,2013-02-07 03:06:00,
2013-02-06 19:15:00,46.9,42.0,29.90,SE,134,4.0,8.0,83,0.00,,,0.04,Wunderground v.1.15,2013-02-07 03:15:00,
2013-02-06 19:25:00,46.8,42.2,29.90,ESE,116,2.0,3.0,84,0.00,,,0.04,Wunderground v.1.15,2013-02-07 03:25:00,
2013-02-06 19:36:00,46.7,41.8,29.90,SE,136,2.0,2.0,83,0.00,,,0.04,Wunderground v.1.15,2013-02-07 03:36:00,
2013-02-06 19:45:00,46.7,42.4,29.91,SE,144,2.0,2.0,85,0.00,,,0.04,Wunderground v.1.15,2013-02-07 03:45:00,
2013-02-06 19:55:00,46.6,42.6,29.91,ENE,72,0.0,2.0,86,0.00,,,0.04,Wunderground v.1.15,2013-02-07 03:55:00,
2013-02-06 20:05:00,46.3,43.2,29.91,ESE,109,1.0,1.0,89,0.00,,,0.05,Wunderground v.1.15,2013-02-07 04:05:00,
2013-02-06 20:16:00,45.8,43.0,29.91,SE,142,1.0,1.0,90,0.00,,,0.05,Wunderground v.1.15,2013-02-07 04:16:00,
2013-02-06 20:25:00,45.4,43.2,29.91,SE,134,0.0,1.0,92,0.00,,,0.06,Wunderground v.1.15,2013-02-07 04:25:00,
2013-02-06 20:35:00,45.1,43.2,29.90,SSE,147,1.0,2.0,93,0.00,,,0.07,Wunderground v.1.15,2013-02-07 04:35:00,
2013-02-06 20:46:00,44.8,43.2,29.90,SE,144,1.0,1.0,94,0.00,,,0.07,Wunderground v.1.15,2013-02-07 04:46:00,
2013-02-06 20:55:00,44.5,43.2,29.91,SSE,154,1.0,1.0,95,0.00,,,0.07,Wunderground v.1.15,2013-02-07 04:55:00,
2013-02-06 21:05:00,44.4,43.1,29.91,SE,141,0.0,0.0,95,0.00,,,0.08,Wunderground v.1.15,2013-02-07 05:05:00,
2013-02-06 21:11:00,44.3,43.0,29.92,North,355,0.0,0.0,95,0.07,,,0.09,Wunderground v.1.15,2013-02-07 05:11:00,
2013-02-06 21:20:00,43.7,41.8,29.96,WSW,238,2.0,20.0,93,0.35,,,0.14,Wunderground v.1.15,2013-02-07 05:20:00,
2013-02-06 21:30:00,41.4,39.0,29.97,NW,309,8.0,11.0,91,0.13,,,0.16,Wunderground v.1.15,2013-02-07 05:30:00,
2013-02-06 21:36:00,40.7,38.3,29.97,NW,310,7.0,7.0,91,0.19,,,0.18,Wunderground v.1.15,2013-02-07 05:36:00,
2013-02-06 21:45:00,40.2,38.1,29.97,NNE,23,6.0,7.0,92,0.15,,,0.21,Wunderground v.1.15,2013-02-07 05:45:00,
2013-02-06 21:50:00,40.1,38.5,29.98,ESE,103,4.0,4.0,94,0.17,,,0.22,Wunderground v.1.15,2013-02-07 05:50:00,
2013-02-06 22:05:00,39.8,38.5,29.99,SE,140,1.0,1.0,95,0.16,,,0.27,Wunderground v.1.15,2013-02-07 06:05:00,
2013-02-06 22:15:00,39.5,38.5,30.00,South,172,1.0,2.0,96,0.21,,,0.30,Wunderground v.1.15,2013-02-07 06:15:00,
2013-02-06 22:20:00,39.3,38.0,30.00,East,91,1.0,2.0,95,0.21,,,0.32,Wunderground v.1.15,2013-02-07 06:20:00,
2013-02-06 22:30:00,39.2,38.2,29.99,ESE,114,0.0,2.0,96,0.21,,,0.35,Wunderground v.1.15,2013-02-07 06:30:00,
2013-02-06 22:40:00,38.4,37.1,29.99,SE,141,4.0,7.0,95,0.09,,,0.37,Wunderground v.1.15,2013-02-07 06:40:00,
2013-02-06 22:46:00,38.2,37.2,30.00,SE,129,3.0,3.0,96,0.09,,,0.38,Wunderground v.1.15,2013-02-07 06:46:00,
2013-02-06 23:05:00,37.9,36.9,29.99,SE,127,3.0,3.0,96,0.00,,,0.38,Wunderground v.1.15,2013-02-07 07:05:00,
2013-02-06 23:16:00,37.7,36.9,30.00,SE,138,2.0,3.0,97,0.00,,,0.38,Wunderground v.1.15,2013-02-07 07:16:00,
2013-02-06 23:25:00,37.6,36.8,30.00,SE,128,3.0,3.0,97,0.00,,,0.38,Wunderground v.1.15,2013-02-07 07:25:00,
2013-02-06 23:36:00,37.5,36.7,30.00,ESE,117,3.0,3.0,97,0.00,,,0.38,Wunderground v.1.15,2013-02-07 07:36:00,
2013-02-06 23:45:00,37.5,36.7,29.99,SE,128,1.0,2.0,97,0.00,,,0.38,Wunderground v.1.15,2013-02-07 07:45:00,
2013-02-06 23:55:00,37.4,36.6,29.99,SE,126,1.0,2.0,97,0.00,,,0.38,Wunderground v.1.15,2013-02-07 07:55:00,